1488124800.19,20021,9.06,73042.0,-4.41,-6.39,-5.93,0,*53
1488124801.46,20022,9.06,73060.0,-4.39,-6.27,-5.85,0,*57
1488124802.72,20023,9.06,73024.8,-4.39,-6.27,-5.85,0,*56
1488124803.99,20024,9.06,73050.8,-4.39,-6.27,-5.85,0,*51
1488124805.22,20025,9.0,73042.3,-4.39,-5.81,-5.35,0,*54
1488124806.46,20026,9.06,73038.8,-4.39,-5.73,-5.35,0,*5A
1488124807.7,20027,9.0,73004.8,-4.37,-5.77,-5.31,0,*55
1488124808.96,20028,9.0,73024.3,-4.35,-6.01,-5.69,0,*57
1488124810.21,20029,9.06,73008.0,-4.35,-6.05,-5.81,0,*54
1488124811.49,20030,9.0,73032.8,-4.35,-6.19,-5.81,0,*51
1488124812.7,20031,9.06,73040.3,-4.37,-6.05,-5.69,0,*59
1488124813.92,20032,9.0,73026.8,-4.37,-6.09,-5.81,0,*50
1488124815.18,20033,9.0,73030.0,-4.35,-6.09,-5.89,0,*5B
1488124816.46,20034,9.0,73048.5,-4.35,-6.23,-5.81,0,*5C
1488124817.7,20035,9.0,73040.0,-4.37,-6.23,-5.89,0,*57
1488124818.95,20036,9.0,73040.0,-4.37,-6.19,-5.89,0,*5D
1488124820.2,20037,9.0,73032.0,-4.35,-6.05,-5.89,0,*53
1488124821.48,20038,9.06,73012.5,-4.35,-6.19,-5.89,0,*51
1488124822.76,20039,9.0,73026.8,-4.35,-6.23,-5.89,0,*59
1488124824.04,20040,9.0,73036.5,-4.35,-6.23,-5.81,0,*5F
1488124825.25,20041,9.0,73042.0,-4.37,-6.09,-5.77,0,*5D
1488124826.52,20042,9.06,73034.0,-4.35,-5.93,-5.55,0,*5C
1488124827.8,20043,9.0,73028.0,-4.35,-5.93,-5.65,0,*5E
1488124829.08,20044,9.0,73052.3,-4.35,-5.93,-5.69,0,*55
1488124830.36,20045,9.06,73042.3,-4.35,-5.93,-5.65,0,*58
1488124831.64,20046,9.06,73048.3,-4.35,-5.93,-5.65,0,*5B
1488124832.9,20047,9.06,73040.3,-4.35,-6.01,-5.69,0,*5E
1488124834.18,20048,9.0,73022.0,-4.35,-5.93,-5.65,0,*55
1488124835.46,20049,9.06,73036.5,-4.35,-5.93,-5.77,0,*57
1488124836.74,20050,9.06,73022.5,-4.35,-5.93,-5.69,0,*50
1488124838.02,20051,9.0,73026.0,-4.35,-5.93,-5.69,0,*51
1488124839.27,20052,9.06,73022.5,-4.35,-6.01,-5.81,0,*5C
1488124840.55,20053,9.0,73008.5,-4.35,-5.93,-5.77,0,*5C
1488124841.77,20054,9.0,73010.5,-4.37,-6.01,-5.81,0,*58
1488124843.05,20055,9.0,73016.8,-4.35,-6.19,-5.89,0,*5A
1488124844.31,20056,9.0,73030.0,-4.35,-6.19,-6.01,0,*5A
1488124845.56,20057,9.0,73000.0,-4.35,-6.09,-5.93,0,*52
1488124846.84,20058,9.06,73010.0,-4.35,-5.89,-5.81,0,*55
1488124848.07,20059,9.0,73014.3,-4.35,-5.51,-5.39,0,*52
1488124849.35,20060,9.0,73002.5,-4.35,-5.89,-5.89,0,*56
1488124850.58,20061,9.06,73004.5,-4.35,-5.51,-5.51,0,*57
1488124851.86,20062,9.0,72986.3,-4.35,-5.65,-5.77,0,*57
1488124853.14,20063,9.0,73012.8,-4.35,-5.11,-5.19,0,*5D
1488124854.39,20064,9.0,73014.5,-4.35,-4.65,-4.73,0,*55
1488124855.64,20065,9.0,72990.8,-4.29,-4.73,-4.93,0,*50
1488124856.87,20066,9.06,73030.0,-4.33,-5.27,-5.39,0,*59
1488124858.07,20067,9.0,73032.0,-4.29,-5.39,-5.35,0,*50
1488124859.35,20068,9.0,73034.0,-4.27,-5.69,-5.69,0,*5D
1488124860.64,20069,9.0,73042.5,-4.27,-5.93,-5.93,0,*5C
1488124861.92,20070,9.0,73036.8,-4.27,-5.93,-5.93,0,*54
1488124863.12,20071,9.0,73064.3,-4.25,-5.97,-5.97,0,*57
1488124864.32,20072,9.0,73060.8,-4.25,-5.97,-5.97,0,*54
1488124865.58,20073,9.0,73030.0,-4.25,-5.81,-5.85,0,*51
1488124866.87,20074,9.0,73026.0,-4.27,-5.85,-5.93,0,*57
1488124868.16,20075,9.06,73014.5,-4.27,-5.85,-5.85,0,*51
1488124869.41,20076,9.0,73016.3,-4.27,-5.93,-6.01,0,*5A
1488124870.62,20077,9.0,73032.5,-4.25,-6.09,-6.09,0,*51
1488124871.82,20078,9.0,73034.0,-4.25,-6.13,-6.01,0,*5D
1488124873.05,20079,9.0,73020.5,-4.27,-6.09,-6.09,0,*5D
1488124874.27,20080,9.06,73046.3,-4.27,-6.13,-6.13,0,*5B
1488124875.5,20081,9.06,73018.0,-4.27,-6.09,-6.09,0,*5A
1488124876.73,20082,9.06,73010.3,-4.27,-6.13,-6.13,0,*59
1488124877.93,20083,9.06,72994.5,-4.25,-6.47,-6.39,0,*53
1488124879.2,20084,9.0,72980.8,-4.27,-6.23,-6.23,0,*5F
1488124880.48,20085,9.0,73010.5,-4.27,-6.23,-6.27,0,*5A
1488124881.71,20086,9.0,73024.3,-4.27,-6.09,-6.09,0,*5D
1488124882.96,20087,9.0,73048.8,-4.25,-6.23,-6.23,0,*5E
1488124884.21,20088,9.0,73030.8,-4.25,-6.23,-6.23,0,*51
1488124885.43,20089,9.0,73048.5,-4.27,-6.13,-6.13,0,*52
1488124886.69,20090,9.0,73048.3,-4.25,-5.81,-5.81,0,*58
1488124887.89,20091,9.0,73022.8,-4.25,-5.43,-5.47,0,*5D
1488124889.09,20092,9.0,73016.3,-4.25,-5.43,-5.43,0,*5A
1488124890.28,20093,9.0,73038.3,-4.25,-5.43,-5.43,0,*5B
1488124891.51,20094,9.0,73024.3,-4.23,-5.43,-5.43,0,*5A
1488124892.71,20095,9.06,73026.3,-4.21,-5.51,-5.43,0,*5A
1488124893.92,20096,9.0,73034.3,-4.21,-5.43,-5.39,0,*57
1488124895.12,20097,9.06,73030.8,-4.21,-5.43,-5.39,0,*56
1488124896.37,20098,9.0,73020.3,-4.23,-5.39,-5.31,0,*5E
1488124897.58,20099,9.0,73014.5,-4.21,-5.43,-5.39,0,*58
1488124898.8,20100,9.0,73036.0,-4.19,-5.39,-5.35,0,*53
1488124900.03,20101,9.0,73028.5,-4.19,-5.47,-5.35,0,*5B
1488124901.26,20102,9.06,73044.5,-4.19,-5.35,-5.47,0,*58
1488124902.46,20103,9.0,73050.0,-4.17,-5.43,-5.35,0,*53
1488124903.66,20104,9.0,73050.3,-4.17,-5.43,-5.35,0,*54
1488124904.89,20105,9.0,73036.0,-4.15,-5.47,-5.35,0,*53
1488124906.13,20106,9.0,73032.5,-4.15,-5.55,-5.43,0,*52
1488124907.34,20107,9.0,73034.5,-4.13,-5.51,-5.39,0,*5C
1488124908.55,20108,9.0,73018.3,-4.13,-5.55,-5.43,0,*5A
1488124909.81,20109,9.0,73028.8,-4.15,-5.73,-5.55,0,*5E
1488124911.06,20110,9.0,73038.8,-4.13,-5.69,-5.65,0,*58
1488124912.32,20111,9.0,73058.0,-4.13,-5.69,-5.65,0,*59
1488124913.58,20112,9.06,73068.0,-4.13,-5.77,-5.65,0,*55
1488124914.84,20113,9.0,73048.5,-4.13,-5.69,-5.65,0,*5B
1488124916.1,20114,9.06,73028.8,-4.13,-5.77,-5.69,0,*5F
1488124917.36,20115,9.0,73030.8,-4.13,-5.93,-5.81,0,*52
1488124918.62,20116,9.06,73044.8,-4.15,-5.97,-5.85,0,*57
1488124919.85,20117,9.0,73038.3,-4.13,-5.97,-5.81,0,*54
1488124921.11,20118,9.06,73030.3,-4.13,-5.93,-5.81,0,*5F
1488124922.37,20119,9.0,73046.5,-4.11,-6.05,-5.85,0,*54
1488124923.62,20120,9.06,73014.3,-4.11,-6.09,-5.85,0,*52
1488124924.88,20121,9.06,73026.0,-4.11,-6.09,-5.85,0,*53
1488124926.14,20122,9.0,73054.5,-4.13,-5.93,-5.69,0,*50
1488124927.38,20123,9.0,73040.3,-4.13,-5.77,-5.55,0,*54
1488124928.61,20124,9.0,73064.0,-4.13,-5.97,-5.77,0,*5D
1488124929.84,20125,9.0,73050.3,-4.13,-5.97,-5.77,0,*5C
1488124931.07,20126,9.0,73054.5,-4.13,-5.97,-5.77,0,*5F
1488124932.33,20127,9.0,73078.0,-4.13,-5.93,-5.77,0,*5A
1488124933.59,20128,9.0,73058.3,-4.13,-5.77,-5.65,0,*5C
1488124934.85,20129,9.0,73060.0,-4.13,-5.77,-5.69,0,*51
1488124936.12,20130,9.0,73040.5,-4.11,-5.77,-5.77,0,*54
1488124937.4,20131,9.06,73046.5,-4.11,-5.93,-5.85,0,*52
1488124938.69,20132,9.06,73036.0,-4.11,-5.85,-5.85,0,*56
1488124939.97,20133,9.0,73058.8,-4.11,-5.69,-5.69,0,*57
1488124941.24,20134,9.0,73042.8,-4.11,-5.77,-5.77,0,*50
1488124942.47,20135,9.0,73028.8,-4.11,-5.39,-5.43,0,*5C
1488124943.72,20136,9.0,73032.8,-4.09,-5.27,-5.31,0,*5C
1488124944.98,20137,9.0,73040.0,-4.09,-5.19,-5.27,0,*57
1488124946.18,20138,9.0,73062.8,-4.05,-5.35,-5.35,0,*59
1488124947.43,20139,9.0,73044.5,-4.09,-5.77,-5.81,0,*5D
1488124948.66,20140,9.0,73026.0,-4.09,-5.93,-5.97,0,*5E
1488124949.92,20141,9.0,73022.0,-4.05,-5.93,-5.93,0,*57
1488124951.14,20142,9.0,73032.3,-4.03,-5.89,-6.01,0,*51
1488124952.38,20143,9.0,73044.0,-4.05,-5.93,-6.05,0,*59
1488124953.58,20144,9.0,73058.8,-4.05,-6.01,-6.01,0,*52
1488124954.78,20145,9.0,73070.3,-4.05,-6.01,-6.13,0,*50
1488124955.99,20146,9.0,73054.0,-4.05,-6.01,-6.01,0,*50
1488124957.19,20147,9.06,73068.5,-4.05,-6.13,-6.13,0,*51
1488124958.45,20148,9.0,73052.3,-4.05,-6.19,-6.19,0,*5E
1488124959.66,20149,9.0,73032.0,-4.05,-6.31,-6.31,0,*5F
1488124960.87,20150,9.06,73034.8,-4.05,-6.31,-6.43,0,*52
1488124962.08,20151,9.0,73038.0,-4.05,-6.39,-6.43,0,*5B
1488124963.28,20152,9.0,73032.3,-4.05,-6.43,-6.39,0,*58
1488124964.49,20153,9.0,73036.5,-4.05,-6.43,-6.43,0,*54
1488124965.69,20154,9.0,73024.8,-4.09,-6.47,-6.55,0,*5C
1488124966.89,20155,9.0,73020.5,-4.09,-6.47,-6.47,0,*5E
1488124968.14,20156,9.0,73024.5,-4.09,-6.19,-6.19,0,*5D
1488124969.34,20157,9.0,73040.3,-4.09,-6.05,-6.05,0,*5C
1488124970.53,20158,9.0,73034.8,-4.09,-6.05,-6.05,0,*53
1488124971.79,20159,9.0,73034.0,-4.09,-5.85,-5.85,0,*52
1488124973.06,20160,9.0,73040.3,-4.11,-5.65,-5.77,0,*52
1488124974.32,20161,9.0,73044.8,-4.05,-5.73,-5.81,0,*58
1488124975.58,20162,9.0,73030.3,-4.05,-5.81,-5.93,0,*55
1488124976.83,20163,9.0,73056.0,-4.05,-5.77,-5.77,0,*57
1488124978.08,20164,9.0,73028.8,-4.03,-5.61,-5.61,0,*56
1488124979.34,20165,9.0,73054.3,-4.03,-5.61,-5.61,0,*57
1488124980.59,20166,9.0,73052.8,-4.05,-5.65,-5.65,0,*52
1488124981.85,20167,9.06,73050.8,-4.05,-5.65,-5.65,0,*53
1488124983.1,20168,9.0,73046.0,-4.03,-5.61,-5.61,0,*5A
1488124984.36,20169,9.06,73036.0,-4.03,-5.61,-5.69,0,*53
1488124985.6,20170,9.06,73010.8,-4.03,-5.61,-5.73,0,*50
1488124986.8,20171,9.0,73032.3,-4.03,-5.43,-5.47,0,*56
1488124988.0,20172,9.0,73054.5,-4.03,-5.47,-5.47,0,*51
1488124989.26,20173,9.0,73050.5,-4.01,-5.47,-5.61,0,*56
1488124990.52,20174,9.0,73054.3,-4.01,-5.47,-5.61,0,*51
1488124991.78,20175,9.06,73060.5,-4.01,-5.55,-5.69,0,*5B
1488124993.04,20176,9.0,73054.5,-3.99,-5.77,-5.85,0,*5C
1488124994.26,20177,9.0,73054.5,-4.01,-5.97,-6.01,0,*5A
1488124995.46,20178,9.0,73040.8,-3.99,-5.97,-6.05,0,*57
1488124996.71,20179,9.0,73020.8,-4.01,-6.13,-6.23,0,*5B
1488124997.92,20180,9.06,73040.5,-3.99,-6.31,-6.35,0,*5C
1488124999.18,20181,9.0,73024.8,-4.01,-6.35,-6.27,0,*5C
1488125000.4,20182,9.06,73014.8,-3.99,-6.31,-6.23,0,*59
1488125001.67,20183,9.0,73008.8,-3.99,-5.93,-5.85,0,*5C
1488125002.92,20184,9.0,73018.8,-3.97,-6.05,-5.93,0,*5E
1488125004.16,20185,9.0,73014.0,-3.97,-6.43,-6.31,0,*56
1488125005.39,20186,9.0,73036.5,-3.97,-6.47,-6.47,0,*50
1488125006.62,20187,9.0,73024.8,-3.97,-6.59,-6.47,0,*5E
1488125007.83,20188,9.0,73040.8,-3.99,-6.73,-6.47,0,*57
1488125009.06,20189,9.0,73036.3,-4.01,-6.77,-6.51,0,*53
1488125010.34,20190,9.0,73026.8,-4.01,-6.93,-6.63,0,*50
1488125011.55,20191,9.06,73048.5,-3.99,-6.77,-6.47,0,*5B
1488125012.78,20192,9.0,73040.5,-4.01,-6.89,-6.55,0,*5C
1488125014.01,20193,9.0,73026.8,-4.01,-6.89,-6.55,0,*5D
1488125015.22,20194,9.06,73008.0,-3.99,-6.77,-6.59,0,*51
1488125016.45,20195,9.06,73006.8,-4.01,-6.69,-6.51,0,*51
1488125017.68,20196,9.0,73008.5,-4.01,-6.55,-6.47,0,*5A
1488125018.9,20197,9.06,73008.3,-4.03,-6.35,-6.23,0,*5D
1488125020.13,20198,9.06,73038.3,-4.03,-5.61,-5.55,0,*52
1488125021.4,20199,9.0,73026.0,-4.01,-5.73,-5.73,0,*56
1488125022.66,20200,9.0,73036.8,-3.99,-5.69,-5.81,0,*55
1488125023.9,20201,9.0,73012.3,-4.01,-5.55,-5.55,0,*54
1488125025.15,20202,9.0,73040.5,-3.99,-5.65,-5.65,0,*51
1488125026.44,20203,9.0,73054.0,-4.01,-5.77,-5.85,0,*5B
1488125027.69,20204,9.0,73024.3,-3.99,-5.65,-5.69,0,*5B
1488125028.98,20205,9.0,73000.5,-3.97,-5.65,-5.69,0,*54
1488125030.26,20206,9.0,72998.3,-3.97,-5.81,-5.81,0,*5B
1488125031.55,20207,9.0,72998.3,-3.97,-5.93,-5.85,0,*5D
1488125032.83,20208,9.0,73016.5,-3.93,-5.65,-5.61,0,*55
1488125034.11,20209,9.0,72994.5,-3.97,-5.69,-5.73,0,*5F
1488125035.36,20210,9.0,73022.0,-3.95,-5.77,-5.81,0,*57
1488125036.61,20211,9.0,73018.3,-3.95,-5.81,-5.77,0,*56
1488125037.87,20212,9.0,73016.5,-3.95,-5.93,-5.89,0,*57
1488125039.1,20213,9.0,73020.8,-3.95,-6.19,-6.05,0,*50
1488125040.35,20214,9.0,73012.5,-3.93,-6.19,-6.01,0,*55
1488125041.63,20215,9.0,73030.3,-3.93,-6.19,-5.89,0,*57
1488125042.9,20216,9.0,73026.8,-3.93,-6.27,-5.93,0,*52
1488125044.18,20217,9.0,72980.0,-3.93,-6.19,-5.89,0,*55
1488125045.43,20218,9.0,73002.3,-3.93,-6.31,-5.93,0,*5B
1488125046.68,20219,9.0,72972.5,-3.93,-5.77,-5.51,0,*55
1488125047.93,20220,9.06,72984.8,-3.93,-4.73,-4.57,0,*5D
1488125049.17,20221,9.0,72984.3,-3.91,-5.55,-5.19,0,*50
1488125050.42,20222,9.0,72934.8,-3.93,-5.93,-5.47,0,*50
1488125051.67,20223,9.06,72940.5,-3.89,-6.13,-5.65,0,*51
1488125052.87,20224,9.0,72970.3,-3.91,-6.01,-5.47,0,*5C
1488125054.15,20225,9.0,72972.5,-3.93,-5.65,-5.15,0,*59
1488125055.37,20226,9.0,72988.8,-3.91,-5.77,-5.43,0,*58
1488125056.63,20227,9.0,72972.5,-3.91,-5.93,-5.65,0,*57
1488125057.85,20228,9.0,72984.8,-3.91,-6.01,-5.77,0,*53
1488125059.1,20229,9.0,73014.8,-3.93,-6.05,-5.89,0,*55
1488125060.33,20230,9.06,73012.8,-3.91,-6.09,-5.85,0,*5F
1488125061.61,20231,9.0,73012.5,-3.93,-5.93,-5.81,0,*58
1488125062.86,20232,9.06,73012.3,-3.91,-5.89,-5.65,0,*58
1488125064.14,20233,9.0,73014.5,-3.93,-5.77,-5.61,0,*5E
1488125065.4,20234,9.0,73026.3,-3.91,-5.81,-5.61,0,*52
1488125066.62,20235,9.0,73014.5,-3.91,-5.97,-5.85,0,*5E
1488125067.82,20236,9.0,73038.3,-3.91,-6.09,-5.97,0,*5A
1488125069.02,20237,9.06,73040.3,-3.91,-6.09,-6.01,0,*57
1488125070.24,20238,9.0,73006.3,-3.91,-6.23,-6.13,0,*53
1488125071.47,20239,9.0,73038.0,-3.93,-6.31,-6.31,0,*53
1488125072.69,20240,9.0,73042.0,-3.91,-6.39,-6.27,0,*50
1488125073.89,20241,9.0,73042.0,-3.91,-6.51,-6.35,0,*5C
1488125075.09,20242,9.06,73054.3,-3.91,-6.51,-6.39,0,*53
1488125076.32,20243,9.0,73042.3,-3.93,-6.55,-6.39,0,*54
1488125077.55,20244,9.0,73038.0,-3.93,-6.59,-6.43,0,*52
1488125078.75,20245,9.06,73028.8,-3.91,-6.51,-6.39,0,*54
1488125079.97,20246,9.0,73022.0,-3.93,-6.55,-6.39,0,*51
1488125081.17,20247,9.0,73018.8,-3.91,-6.43,-6.39,0,*55
1488125082.39,20248,9.0,73022.3,-3.93,-6.59,-6.55,0,*59
1488125083.62,20249,9.0,73034.5,-3.91,-6.55,-6.63,0,*53
1488125084.84,20250,9.0,73038.3,-3.93,-6.59,-6.69,0,*5F
1488125086.04,20251,9.0,73046.0,-3.91,-6.55,-6.55,0,*5F
1488125087.26,20252,9.0,73044.0,-3.91,-6.69,-6.63,0,*56
1488125088.5,20253,9.0,73058.5,-3.91,-6.63,-6.63,0,*5D
1488125089.71,20254,9.0,73054.5,-3.91,-6.77,-6.81,0,*53
1488125090.94,20255,9.0,73028.0,-3.93,-6.81,-6.85,0,*5D
1488125092.14,20256,9.0,73024.8,-3.91,-6.77,-6.81,0,*51
1488125093.34,20257,9.0,73038.0,-3.91,-6.81,-6.77,0,*50
1488125094.55,20258,9.0,73046.3,-3.91,-6.89,-6.81,0,*5E
1488125095.8,20259,9.0,73046.3,-3.93,-6.93,-6.85,0,*52
1488125097.05,20260,9.0,73050.3,-3.93,-6.97,-6.85,0,*5C
1488125098.28,20261,9.0,73048.3,-3.91,-6.93,-6.77,0,*56
1488125099.5,20262,9.0,73036.8,-3.91,-6.77,-6.63,0,*5A
1488125100.73,20263,9.0,73042.8,-3.91,-6.81,-6.63,0,*52
1488125101.95,20264,9.06,73056.5,-3.93,-6.81,-6.69,0,*5D
1488125103.23,20265,9.0,73036.3,-3.93,-7.05,-6.93,0,*54
1488125104.5,20266,9.0,73048.0,-3.93,-7.05,-6.97,0,*53
1488125105.75,20267,9.0,73046.3,-3.93,-7.05,-6.81,0,*55
1488125107.0,20268,9.0,73042.8,-3.93,-7.05,-6.85,0,*5E
1488125108.23,20269,9.0,73048.5,-3.95,-6.93,-6.73,0,*5E
1488125109.49,20270,9.0,73050.0,-3.93,-6.97,-6.81,0,*59
1488125110.74,20271,9.0,73042.0,-3.93,-6.97,-6.73,0,*55
1488125112.0,20272,9.0,73038.8,-3.93,-6.97,-6.81,0,*5B
1488125113.23,20273,9.0,73042.5,-3.97,-7.11,-6.85,0,*55
1488125114.49,20274,9.0,73030.3,-3.97,-6.97,-6.81,0,*59
1488125115.73,20275,9.0,73058.0,-3.97,-7.11,-6.73,0,*5A
1488125116.96,20276,9.0,73038.0,-3.95,-6.93,-6.43,0,*53
1488125118.19,20277,9.0,73024.3,-3.97,-6.69,-6.35,0,*54
1488125119.46,20278,9.0,73018.3,-3.97,-6.63,-6.23,0,*56
1488125120.69,20279,9.0,73000.5,-3.95,-6.39,-6.19,0,*53
1488125121.89,20280,9.0,73004.8,-3.95,-6.51,-6.35,0,*55
1488125123.13,20281,9.0,73004.0,-3.97,-6.51,-6.47,0,*53
1488125124.36,20282,9.0,73028.0,-3.97,-6.59,-6.51,0,*5F
1488125125.56,20283,9.0,73028.0,-3.95,-6.69,-6.59,0,*57
1488125126.76,20284,9.0,73010.5,-3.95,-6.73,-6.69,0,*58
1488125127.99,20285,9.0,72984.8,-3.97,-6.73,-6.73,0,*50
1488125129.24,20286,9.0,73006.8,-3.97,-6.85,-6.97,0,*50
1488125130.5,20287,9.0,73010.3,-3.97,-6.97,-7.11,0,*5D
1488125131.77,20288,9.0,73008.5,-3.97,-7.11,-7.27,0,*58
1488125133.02,20289,9.0,73010.8,-3.97,-7.01,-7.15,0,*59
1488125134.26,20290,9.0,73018.0,-3.97,-7.11,-7.15,0,*50
1488125135.5,20291,9.0,73022.0,-3.97,-7.11,-7.11,0,*55
1488125136.74,20292,9.0,72994.5,-3.97,-7.11,-7.11,0,*56
1488125138.02,20293,9.0,72986.5,-3.97,-7.01,-7.01,0,*57
1488125139.3,20294,9.0,73024.8,-3.97,-7.01,-7.01,0,*50
1488125140.57,20295,9.0,73010.5,-4.01,-7.05,-7.05,0,*59
1488125141.77,20296,9.0,73016.8,-3.99,-6.89,-6.89,0,*5C
1488125143.0,20297,9.0,73048.5,-3.99,-6.63,-6.59,0,*54
1488125144.2,20298,9.0,73032.5,-3.99,-6.77,-6.73,0,*56
1488125145.45,20299,9.0,73032.8,-3.99,-6.23,-6.23,0,*53
1488125146.66,20300,9.0,73034.5,-3.99,-6.43,-6.31,0,*57
1488125147.89,20301,9.0,73006.5,-3.97,-6.73,-6.59,0,*55
1488125149.1,20302,9.0,73030.5,-3.95,-6.59,-6.55,0,*50
1488125150.3,20303,9.0,73010.3,-3.95,-6.47,-6.43,0,*59
1488125151.53,20304,9.0,73024.3,-3.97,-6.59,-6.47,0,*57
1488125152.73,20305,9.0,73012.5,-3.95,-6.81,-6.73,0,*56
1488125154.0,20306,9.0,73012.3,-3.97,-6.93,-6.81,0,*59
1488125155.26,20307,9.0,73012.3,-3.97,-6.97,-6.89,0,*54
1488125156.49,20308,9.0,73008.3,-3.97,-6.89,-6.89,0,*54
1488125157.75,20309,9.0,73020.0,-3.97,-6.97,-6.85,0,*56
1488125158.98,20310,9.0,73010.8,-3.97,-7.11,-6.89,0,*5D
1488125160.21,20311,9.0,73012.8,-3.97,-6.89,-6.85,0,*50
1488125161.45,20312,9.0,73018.8,-3.97,-6.59,-6.51,0,*57
1488125162.65,20313,9.0,72952.8,-3.95,-6.47,-6.31,0,*5D
1488125163.94,20314,9.0,73010.5,-3.97,-5.93,-5.85,0,*5E
1488125165.19,20315,9.0,73004.3,-3.95,-6.19,-5.93,0,*5B
1488125166.44,20316,9.0,73012.3,-3.93,-6.31,-6.27,0,*58
1488125167.7,20317,9.0,73034.3,-3.93,-6.31,-6.19,0,*54
1488125168.92,20318,9.0,73016.5,-3.93,-6.39,-6.31,0,*59
1488125170.14,20319,9.0,73006.5,-3.91,-6.39,-6.23,0,*59
1488125171.34,20320,9.0,73004.0,-3.91,-6.43,-6.31,0,*5D
1488125172.57,20321,9.0,73006.5,-3.93,-6.47,-6.31,0,*5A
1488125173.79,20322,9.06,73026.5,-3.91,-6.63,-6.35,0,*59
1488125175.01,20323,9.0,73010.8,-3.93,-6.69,-6.39,0,*5C
1488125176.23,20324,9.0,73034.0,-3.93,-6.69,-6.39,0,*5B
1488125177.43,20325,9.0,73010.0,-3.91,-6.55,-6.35,0,*5B
1488125178.62,20326,9.0,73042.5,-3.91,-6.69,-6.35,0,*57
1488125179.86,20327,9.0,73036.8,-3.91,-6.63,-6.27,0,*5F
1488125181.08,20328,9.0,73008.5,-3.91,-6.69,-6.27,0,*5A
1488125182.31,20329,9.0,73026.0,-3.91,-6.81,-6.27,0,*5D
1488125183.51,20330,9.0,73010.5,-3.91,-6.89,-6.35,0,*5E
1488125184.71,20331,9.0,73026.5,-3.91,-6.89,-6.35,0,*5F
1488125185.98,20332,9.0,73014.5,-3.93,-6.93,-6.27,0,*56
1488125187.18,20333,9.0,73034.5,-3.91,-6.89,-6.09,0,*52
1488125188.4,20334,9.0,73040.8,-3.93,-6.85,-6.01,0,*53
1488125189.62,20335,9.0,73046.8,-3.93,-6.85,-6.05,0,*56
1488125190.84,20336,9.0,73046.3,-3.93,-6.81,-6.05,0,*51
1488125192.04,20337,9.0,73052.3,-3.91,-6.69,-5.97,0,*5C
1488125193.29,20338,9.0,73046.5,-3.93,-6.59,-5.93,0,*56
1488125194.54,20339,9.0,73040.5,-3.93,-6.47,-5.93,0,*58
1488125195.76,20340,9.0,73038.8,-3.93,-6.39,-6.01,0,*57
1488125196.98,20341,9.0,73038.0,-3.93,-6.39,-6.05,0,*52
1488125198.2,20342,9.0,73032.3,-3.93,-6.43,-6.05,0,*5C
1488125199.39,20343,9.0,73034.3,-3.91,-6.43,-6.01,0,*5B
1488125200.62,20344,9.0,73038.0,-3.93,-6.55,-6.13,0,*5A
1488125201.81,20345,9.0,73044.3,-3.95,-6.47,-6.05,0,*59
1488125203.03,20346,9.0,73044.8,-3.95,-6.47,-6.23,0,*5E
1488125204.26,20347,9.0,73040.3,-3.95,-6.47,-6.27,0,*5B
1488125205.49,20348,9.0,73036.3,-3.97,-6.59,-6.31,0,*5E
1488125206.72,20349,9.0,73034.5,-3.95,-6.59,-6.27,0,*5A
1488125207.92,20350,9.0,73036.8,-3.95,-6.47,-6.31,0,*5A
1488125209.15,20351,9.0,73042.8,-3.95,-6.55,-6.27,0,*5F
1488125210.37,20352,9.0,73050.3,-3.95,-6.47,-6.19,0,*52
1488125211.57,20353,9.0,73042.8,-3.95,-6.47,-6.13,0,*59
1488125212.8,20354,9.0,73040.5,-3.95,-6.55,-6.19,0,*57
1488125214.04,20355,9.0,73040.3,-3.97,-6.77,-6.35,0,*5A
1488125215.27,20356,9.0,73034.3,-3.97,-6.77,-6.35,0,*59
1488125216.48,20357,9.0,73024.8,-3.95,-6.81,-6.47,0,*56
1488125217.71,20358,9.0,73024.3,-3.97,-6.85,-6.47,0,*5F
1488125218.94,20359,9.0,73028.0,-3.97,-6.89,-6.47,0,*52
1488125220.2,20360,9.0,73038.3,-3.97,-6.97,-6.47,0,*57
1488125221.41,20361,9.0,73042.5,-3.99,-6.77,-6.43,0,*52
1488125222.61,20362,9.0,73052.0,-3.99,-6.85,-6.47,0,*58
1488125223.84,20363,9.0,73054.8,-3.99,-6.89,-6.63,0,*53
1488125225.07,20364,9.0,73046.0,-3.99,-7.01,-6.59,0,*5C
1488125226.28,20365,9.0,73040.0,-3.99,-6.89,-6.43,0,*57
1488125227.51,20366,9.0,73028.0,-4.01,-6.89,-6.47,0,*56
1488125228.74,20367,9.0,73028.0,-4.01,-6.81,-6.47,0,*5F
1488125229.96,20368,9.0,73026.3,-4.01,-6.69,-6.39,0,*5F
1488125231.22,20369,9.0,73018.8,-4.01,-6.93,-6.51,0,*55
1488125232.47,20370,9.0,73024.0,-4.01,-6.69,-6.27,0,*59
1488125233.7,20371,9.0,73016.3,-4.01,-6.51,-6.09,0,*5F
1488125234.93,20372,9.0,73030.8,-4.01,-6.51,-6.13,0,*57
1488125236.18,20373,9.0,73036.3,-4.01,-6.55,-6.23,0,*51
1488125237.43,20374,9.0,73044.8,-4.01,-6.55,-6.27,0,*52
1488125238.68,20375,9.0,73038.8,-4.01,-6.63,-6.35,0,*55
1488125239.91,20376,9.0,73046.0,-4.01,-6.55,-6.39,0,*5F
1488125241.13,20377,9.0,73040.0,-4.01,-6.69,-6.47,0,*58
1488125242.39,20378,9.0,73040.0,-4.03,-6.93,-6.63,0,*56
1488125243.61,20379,9.0,73056.3,-4.03,-6.93,-6.69,0,*5D
1488125244.86,20380,9.0,73062.5,-4.01,-6.93,-6.69,0,*59
1488125246.11,20381,9.0,73058.5,-4.01,-7.01,-6.69,0,*52
1488125247.39,20382,9.0,73058.0,-4.01,-7.01,-6.63,0,*5B
1488125248.62,20383,9.0,73042.0,-4.01,-7.15,-6.77,0,*5A
1488125249.82,20384,9.0,73050.0,-4.03,-7.19,-6.77,0,*53
1488125251.04,20385,9.0,73044.0,-4.05,-7.23,-6.81,0,*54
1488125252.26,20386,9.0,73028.0,-4.03,-7.01,-6.51,0,*5C
1488125253.5,20387,9.0,73030.8,-4.03,-6.93,-6.47,0,*50
1488125254.7,20388,9.0,73060.8,-4.03,-6.89,-6.51,0,*53
1488125255.9,20389,9.0,73066.0,-4.05,-6.73,-6.51,0,*51
1488125257.1,20390,9.0,73050.3,-4.05,-6.69,-6.39,0,*5C
1488125258.34,20391,9.0,73042.3,-4.05,-6.59,-6.27,0,*51
1488125259.54,20392,9.0,73030.8,-4.05,-6.43,-6.05,0,*59
1488125260.77,20393,9.0,73030.0,-4.05,-6.39,-5.93,0,*59
1488125261.96,20394,9.0,73016.8,-4.03,-6.39,-6.01,0,*50
1488125263.17,20395,9.0,73026.0,-4.05,-6.43,-6.13,0,*59
1488125264.37,20396,9.0,73042.5,-4.05,-6.55,-6.05,0,*5A
1488125265.58,20397,9.0,73034.0,-4.05,-6.51,-6.01,0,*5B
1488125266.81,20398,9.0,73026.3,-4.05,-6.69,-6.19,0,*56
1488125268.01,20399,9.0,73030.0,-4.05,-6.69,-6.13,0,*5D
1488125269.21,20400,9.0,73036.5,-4.05,-6.59,-6.01,0,*5A
1488125270.44,20401,9.0,73030.8,-4.05,-6.43,-5.73,0,*56
1488125271.69,20402,9.0,73036.0,-4.03,-6.27,-5.69,0,*5A
1488125272.94,20403,9.0,73042.3,-4.05,-6.27,-5.65,0,*51
1488125274.17,20404,9.0,73036.3,-4.05,-6.31,-5.73,0,*56
1488125275.43,20405,9.0,73056.3,-4.05,-6.19,-5.65,0,*5A
1488125276.66,20406,9.0,73036.5,-4.03,-6.01,-5.61,0,*52
1488125277.89,20407,9.0,73038.5,-4.05,-6.05,-5.61,0,*51
1488125279.13,20408,9.0,73016.8,-4.05,-6.01,-5.61,0,*5A
1488125280.4,20409,9.0,73046.0,-4.05,-5.69,-5.23,0,*50
1488125281.62,20410,9.0,73054.3,-4.05,-5.73,-5.39,0,*58
1488125282.88,20411,9.0,73030.8,-4.05,-5.65,-5.23,0,*55
1488125284.14,20412,9.0,73028.8,-4.03,-5.61,-5.19,0,*5D
1488125285.37,20413,9.0,73020.8,-4.05,-5.81,-5.47,0,*5F
1488125286.6,20414,9.0,73032.8,-4.03,-5.77,-5.39,0,*5E
1488125287.82,20415,9.0,73032.3,-4.03,-5.69,-5.43,0,*5D
1488125289.05,20416,9.0,73044.0,-4.05,-5.65,-5.47,0,*50
1488125290.28,20417,9.0,73038.0,-4.05,-5.61,-5.47,0,*55
1488125291.54,20418,9.0,73018.8,-4.05,-5.73,-5.61,0,*5D
1488125292.79,20419,9.0,73038.0,-4.05,-5.65,-5.65,0,*5F
1488125294.03,20420,9.0,73020.0,-4.03,-5.69,-5.55,0,*5C
1488125295.28,20421,9.0,73006.0,-4.03,-5.89,-5.77,0,*53
1488125296.54,20422,9.0,73012.3,-4.05,-6.19,-5.89,0,*5D
1488125297.79,20423,9.0,73008.8,-4.03,-6.23,-5.77,0,*52
1488125299.01,20424,9.0,73048.8,-4.05,-6.39,-5.77,0,*58
1488125300.24,20425,9.0,73044.8,-4.03,-6.35,-5.69,0,*5C
1488125301.48,20426,9.0,73052.0,-4.03,-6.35,-5.69,0,*5F
1488125302.73,20427,9.0,73054.3,-4.03,-6.27,-5.61,0,*55
1488125303.96,20428,9.0,73044.0,-4.05,-6.27,-5.51,0,*5F
1488125305.19,20429,9.0,73036.5,-4.03,-6.19,-5.47,0,*52
1488125306.42,20430,9.0,73032.0,-4.05,-6.27,-5.51,0,*56
1488125307.62,20431,9.0,73024.3,-4.05,-6.05,-5.51,0,*57
1488125308.86,20432,9.0,73028.5,-4.05,-5.93,-5.39,0,*56
1488125310.09,20433,9.0,73030.0,-4.05,-5.93,-5.39,0,*57
1488125311.34,20434,9.0,73034.0,-4.03,-5.73,-5.19,0,*5A
1488125312.61,20435,9.0,73042.3,-4.05,-5.61,-5.23,0,*57
1488125313.87,20436,9.0,73034.0,-4.05,-5.61,-5.23,0,*54
1488125315.12,20437,9.0,73048.3,-4.03,-5.61,-5.23,0,*53
1488125316.36,20438,9.0,73054.5,-4.05,-5.47,-5.19,0,*57
1488125317.62,20439,9.0,73036.3,-4.03,-5.23,-4.85,0,*56
1488125318.87,20440,9.0,73050.8,-4.05,-5.27,-4.89,0,*56
1488125320.1,20441,9.0,73054.3,-4.03,-5.35,-4.93,0,*59
1488125321.33,20442,9.0,73052.3,-4.05,-5.51,-5.11,0,*55
1488125322.62,20443,9.0,73040.8,-4.01,-5.69,-5.31,0,*59
1488125323.84,20444,9.0,73038.8,-4.03,-5.89,-5.43,0,*57
1488125325.04,20445,9.0,73034.0,-4.03,-5.97,-5.35,0,*58
1488125326.25,20446,9.0,73030.3,-4.03,-6.01,-5.47,0,*52
1488125327.5,20447,9.0,73014.8,-4.03,-5.85,-5.11,0,*5F
1488125328.72,20448,9.0,73056.5,-4.03,-5.73,-4.99,0,*58